sat.trackr.live / text

‹ back to catalog

STARLINK-11376 [DTC]

NORAD 61575 · 2024-187B

PAYLOAD ACTIVE UNKNOWN

§ Identity

Operator
Country
US
Launch date
2024-10-18
Launch site
AFETR
Launch vehicle
Mass (kg)
RCS (m²)

Purposes: comms

External: N2YO · Heavens-Above · Gunter

§ Orbital elements

Epoch: 2026-05-24T19:01:41.508192Z

Period
91.74 min
Inclination
53.1593°
Eccentricity
0.0000339
Mean motion
15.69709337 rev/d
Perigee alt
359.5 km
Apogee alt
360.0 km
Semi-major
6,737.9 km
B*
1.1103e-5
RAAN
281.0579°
Arg perigee
159.6023°
Mean anomaly
200.5008°
Rev number
9,265

§ Raw data

STARLINK-11376 [DTC]1 61575U 24187B   26144.79284153  .00000758  00000+0  11103-4 0  99912 61575  53.1593 281.0579 0000339 159.6023 200.5008 15.69709337 92652

JSON: /api/v1/satellites/61575 · /tle

For live sub-satellite position, see the globe view (requires WebGL).

§ Visibility from observer

Set your observer location to see the next 7 days of passes ≥ 10°. The values pass through the URL so the page stays shareable.

No JS? Fill the form by hand. The geolocation button needs JavaScript.